Content
SEND FEEDBACK

Daily
Averages
Monthly
Summary
United States of America

MILAN, MICHIGAN


Home > North America > United States > Michigan
Elevation: 660 feet     Latitude: 42 05N     Longitude: 083 35W

WEATHER
 
SELECT A DAY
Number of Records: 205,124;   Date Range: 1/1/95 - 9/30/14
 
SHARE

PRINT THIS DATA

[ ← Previous Day ]
WEATHER ALMANAC - FEBRUARY 12, 2014
[ Next Day → ]
[ °C ]   °F
Weather ElementAverageHighLow
Temperature4.9 °F19.9 °F (2:53 pm)-5.8 °F (3:38 am)
Dewpoint-5 °F9 °F (9:53 pm)-15 °F (6:53 am)
Humidity64 %77 % (5:25 am)52 % (4:53 pm)
Barometer30.33 in30.50 in (12:53 am)30.08 in (11:53 pm)
Wind Speed1.6 mph5.8 mph (4:53 pm)
Weather ElementAverage
Visibility4.4 mi
Wind DirectionENE (59.3 °)

Weather ElementTotal
Precipitation0.03 in
Heating Degree Days58 (Base 65)
Averaged from 41 records on February 12, 2014
WEATHER CONDITIONS BREAKOUT
WIND DIRECTION BREAKOUT
WEATHER BY HOUR - FEBRUARY 12, 2014
[ °C ]   °F
Local TimeTemperatureDewpointHumidityBarometerVisibilityWind DirectionWind SpeedGust SpeedPrecipitationEventsConditions
12:24 AM1.4 °F-5.8 °F72 %30.45 in10.0 miCalmClear
12:53 AM3.0 °F-5.1 °F69 %30.50 in10.0 miCalmClear
1:53 AM-2.0 °F-9.9 °F69 %30.48 in10.0 miCalmClear
2:53 AM-2.9 °F-11.9 °F65 %30.45 in9.0 miCalmClear
3:38 AM-5.8 °F-14.8 °F65 %30.39 in4.0 miCalmHaze
3:42 AM-4.0 °F-14.8 °F60 %30.39 in2.5 miCalmHaze
3:53 AM-4.0 °F-14.1 °F62 %30.43 in2.0 miCalmHaze
4:01 AM-5.8 °F-14.8 °F65 %30.39 in1.8 miCalmHaze
4:45 AM-4.0 °F-13.0 °F65 %30.40 in0.5 miCalmHaze
4:53 AM-2.9 °F-11.0 °F68 %30.45 in0.5 miCalmFogLight Freezing Fog
5:25 AM-5.8 °F-11.2 °F77 %30.39 in0.2 miCalmFogLight Freezing Fog
5:53 AM-4.0 °F-13.0 °F65 %30.44 in0.2 miCalmFogLight Freezing Fog
6:36 AM-0.4 °F-9.4 °F66 %30.39 in1.0 miCalmFogLight Freezing Fog
6:53 AM-5.1 °F-15.0 °F62 %30.43 in1.0 miCalmFogLight Freezing Fog
7:00 AM-4.0 °F-14.8 °F60 %30.38 in0.5 miCalmFogLight Freezing Fog
7:07 AM-4.0 °F-14.8 °F60 %30.37 in0.2 miNNE (30°)3.5 mphFogLight Freezing Fog
7:27 AM-2.2 °F-11.2 °F66 %30.37 in1.0 miCalmFogLight Freezing Fog
7:32 AM-2.2 °F-11.2 °F66 %30.37 in0.2 miCalmFogLight Freezing Fog
7:53 AM-2.9 °F-11.9 °F65 %30.40 in0.2 miNE (50°)4.6 mphFogLight Freezing Fog
8:00 AM-2.2 °F-9.4 °F71 %30.35 in0.2 miNE (40°)4.6 mphFogLight Freezing Fog
8:18 AM-0.4 °F-9.4 °F66 %30.35 in1.0 miNE (40°)3.5 mphHaze
8:38 AM1.4 °F-9.4 °F61 %30.35 in0.5 miCalmFogLight Freezing Fog
8:53 AM1.9 °F-6.0 °F69 %30.39 in0.5 miCalmFogLight Freezing Fog
9:01 AM3.2 °F-5.8 °F66 %30.34 in0.2 miCalmFogLight Freezing Fog
9:34 AM6.8 °F-2.2 °F67 %30.33 in0.5 miCalmFogLight Freezing Fog
9:39 AM6.8 °F-4.0 °F61 %30.34 in1.2 miWNW (300°)3.5 mphFogLight Freezing Fog
9:53 AM6.1 °F-4.0 °F63 %30.38 in2.5 miCalmHaze
10:03 AM6.8 °F-2.2 °F67 %30.34 in2.0 miWNW (300°)4.6 mphHaze
10:53 AM16.0 °F1.9 °F54 %30.38 in4.0 miCalmHaze
11:53 AM19.0 °F7.0 °F59 %30.34 in8.0 miCalmClear
12:53 PM17.1 °F7.0 °F65 %30.30 in10.0 miSouth (190°)4.6 mph0.02 inClear
1:53 PM19.0 °F5.0 °F54 %30.25 in10.0 miWSW (240°)4.6 mph0.01 inSnowLight Snow
2:53 PM19.9 °F6.1 °F55 %30.21 in10.0 miSSW (200°)3.5 mph0.00 inClear
4:53 PM19.9 °F5.0 °F52 %30.14 in10.0 miSW (220°)5.8 mphClear
5:53 PM18.0 °F3.9 °F54 %30.14 in10.0 miSW (220°)4.6 mphClear
6:53 PM15.1 °F5.0 °F64 %30.13 in10.0 miCalmPartly Cloudy
7:53 PM12.0 °F3.9 °F70 %30.13 in9.0 miSSE (150°)3.5 mphMostly Cloudy
8:53 PM18.0 °F7.0 °F62 %30.14 in9.0 miCalmOvercast
9:53 PM19.0 °F9.0 °F65 %30.12 in9.0 miSSE (160°)3.5 mphOvercast
10:53 PM18.0 °F8.1 °F65 %30.11 in9.0 miSE (140°)5.8 mphOvercast
11:53 PM17.1 °F7.0 °F65 %30.08 in10.0 miSSE (150°)5.8 mphOvercast
Hourly data recorded from KYIP, located miles away from Milan, Michigan







STORIES FROM OUR PARTNERS